AGROMETEOROLOŠKI PORTAL

vinorodna pokrajina

Temelj dobrega kmetovanja

Pregled podatkov za lokacijo Purisima, meteorološka postaja 513655

Pregled senzorjev na lokaciji

ID Ime Zadnja
vrednost
Datum in čas
meritve
(lokalni čas)
Tip
senzorja
6595 Omočenost lista (1,5 m) (U) 0 U 28.1.2023 07:30 A730WET
6594 Padavine (mm) 0 mm 28.1.2023 07:30 Generic 0.2 mm
6589 Relativna zračna vlaga (2 m) (%RH) 54 %RH 28.1.2023 07:30 50YA
6596 Temperatura tal (30 cm) (°C) 5,5 °C 28.1.2023 07:30 ST2
6588 Temperatura (2 m) (°C) 3,2 °C 28.1.2023 07:30 50YA

Pregled podatkov zadnjih 24 ur

Zap.
št.
Datum in čas
(lokalni čas)
Purisima
Omočenost
lista
(1,5
m)
Padavine Relativna
zračna
vlaga
(2
m)
Temperatura
tal
(30
cm)
Temperatura
(2
m)
1 28.1.2023 07:30 0 0 54,5 5,5 3,2
2 28.1.2023 07:00 0 0 54,4 5,6 3,3
3 28.1.2023 06:30 0 0 55,2 5,7 3,1
4 28.1.2023 06:00 0 0 55,2 5,8 3,2
5 28.1.2023 05:30 0 0 54,6 5,7 3,2
6 28.1.2023 05:00 0 0 54,2 5,6 3,3
7 28.1.2023 04:30 0 0 55,6 5,7 3
8 28.1.2023 04:00 0 0 56 5,7 2,9
9 28.1.2023 03:30 0 0 55,7 5,7 2,9
10 28.1.2023 03:00 0 0 56,2 5,7 2,8
11 28.1.2023 02:30 0 0 56,3 5,8 2,8
12 28.1.2023 02:00 0 0 54,6 5,8 3,1
13 28.1.2023 01:30 0 0 53,8 5,7 3,2
14 28.1.2023 01:00 0 0 52,6 6,1 3,5
15 28.1.2023 00:30 0 0 52,7 6 3,5
16 28.1.2023 00:00 0 0 51,8 5,9 3,7
17 27.1.2023 23:30 0 0 51,1 5,9 3,8
18 27.1.2023 23:00 0 0 50,5 5,7 3,9
19 27.1.2023 22:30 0 0 50,3 5,9 4
20 27.1.2023 22:00 0 0 50,1 5,9 4,1
21 27.1.2023 21:30 0 0 50,4 5,9 4,1
22 27.1.2023 21:00 0 0 50,1 5,9 4,1
23 27.1.2023 20:30 0 0 49,4 6 4,1
24 27.1.2023 20:00 0 0 48,6 5,8 4,1
25 27.1.2023 19:30 0 0 48,6 5,9 4
26 27.1.2023 19:00 0 0 48,7 5,9 3,9
27 27.1.2023 18:30 0 0 47,4 5,7 4
28 27.1.2023 18:00 0 0 46,4 5,7 4,2
29 27.1.2023 17:30 0 0 45,8 5,7 4,5
30 27.1.2023 17:00 0 0 47,2 5,9 4,6
31 27.1.2023 16:30 0 0 47,1 5,6 4,9
32 27.1.2023 16:00 0 0 46,6 5,8 5,1
33 27.1.2023 15:30 0 0 47 5,8 4,9
34 27.1.2023 15:00 0 0 46 5,6 5,6
35 27.1.2023 14:30 0 0 45,6 5,7 5,6
36 27.1.2023 14:00 0 0 45,8 5,4 5,7
37 27.1.2023 13:30 0 0 45,8 5,6 5,8
38 27.1.2023 13:00 0 0 46,3 5,5 5,7
39 27.1.2023 12:30 0 0 46,7 5,6 5,7
40 27.1.2023 12:00 0 0 46,8 5,7 5,5
41 27.1.2023 11:30 0 0 46,6 5,7 5,2
42 27.1.2023 11:00 0 0 47,2 5,6 5,1
43 27.1.2023 10:30 0 0 48,1 5,8 4,8
44 27.1.2023 10:00 0 0 49,5 5,7 4,3
45 27.1.2023 09:30 0 0 51,9 5,9 3,8
46 27.1.2023 09:00 0 0 52,8 6 3,4
47 27.1.2023 08:30 0 0 54,7 5,8 3,2
48 27.1.2023 08:00 0 0 54,9 5,9 3